FW0633 Weather Reports


Display with metric or nautical units.
time (UTC)temp
F
wind
direction
speed
MPH
gust
MPH
rain 1hr
in
rain 24hr
in
rain mn
in
humidity
%
barometer
mb
20260507181504 73 74 2.0 7.0 0.00 0.00 0.00 21 1037.2
20260507180006 73 80 4.0 9.0 0.00 0.00 0.00 20 1037.4
20260507174504 74 36 1.0 5.0 0.00 0.00 0.00 20 1037.5
20260507173005 72 16 2.0 6.0 0.00 0.00 0.00 22 1037.6
20260507171504 72 23 2.0 6.0 0.00 0.00 0.00 22 1037.6
20260507170005 70 33 3.0 7.0 0.00 0.00 0.00 23 1037.7
20260507164505 68 97 3.0 6.0 0.00 0.00 0.00 24 1037.8
20260507163004 68 98 2.0 6.0 0.00 0.00 0.00 24 1038.0
20260507161504 66 59 2.0 6.0 0.00 0.00 0.00 24 1038.0
20260507160005 66 92 2.0 4.0 0.00 0.00 0.00 25 1038.1
20260507154504 65 109 2.0 4.0 0.00 0.00 0.00 26 1038.3
20260507153026 64 101 2.0 5.0 0.00 0.00 0.00 27 1038.3
20260507151504 64 124 1.0 3.0 0.00 0.00 0.00 31 1038.3
20260507150005 63 66 1.0 2.0 0.00 0.00 0.00 35 1038.5
20260507144504 63 120 0.0 1.0 0.00 0.00 0.00 34 1038.6
20260507143004 59 210 0.0 1.0 0.00 0.00 0.00 44 1038.6
20260507141525 56 210 0.0 1.0 0.00 0.00 0.00 46 1038.5
20260507140006 53 210 0.0 1.0 0.00 0.00 0.00 49 1038.5
20260507134504 49 259 0.0 1.0 0.00 0.00 0.00 54 1038.4
20260507133004 47 273 0.0 2.0 0.00 0.00 0.00 56 1038.1
20260507131504 45 271 0.0 2.0 0.00 0.00 0.00 59 1038.0
20260507130025 43 289 0.0 1.0 0.00 0.00 0.00 62 1037.9
20260507124504 42 234 0.0 1.0 0.00 0.00 0.00 63 1037.9
20260507123025 42 251 0.0 1.0 0.00 0.00 0.00 64 1037.8
20260507121504 42 244 0.0 1.0 0.00 0.00 0.00 63 1037.9
20260507120025 43 251 0.0 1.0 0.00 0.00 0.00 61 1037.9
20260507114504 43 277 0.0 1.0 0.00 0.00 0.00 62 1037.9
20260507113005 44 262 0.0 1.0 0.00 0.00 0.00 62 1038.0
20260507111506 44 282 0.0 1.0 0.00 0.00 0.00 61 1038.0
20260507110004 44 274 0.0 1.0 0.00 0.00 0.00 60 1038.0
20260507104504 45 250 0.0 1.0 0.00 0.00 0.00 60 1038.0
20260507103004 45 280 0.0 1.0 0.00 0.00 0.00 60 1038.0
20260507101504 45 260 0.0 1.0 0.00 0.00 0.00 59 1037.8
20260507100004 46 275 0.0 1.0 0.00 0.00 0.00 58 1037.8
20260507094504 46 274 0.0 2.0 0.00 0.00 0.00 58 1037.8
20260507093025 46 253 0.0 1.0 0.00 0.00 0.00 58 1037.8
20260507091503 46 278 0.0 1.0 0.00 0.00 0.00 58 1037.8
20260507090005 47 0 0.0 0.0 0.00 0.00 0.00 57 1037.8
20260507084504 48 255 0.0 1.0 0.00 0.00 0.00 56 1037.8
20260507083025 50 248 0.0 1.0 0.00 0.00 0.00 52 1037.9
20260507081504 51 0 0.0 0.0 0.00 0.00 0.00 50 1037.8
20260507080025 53 239 0.0 1.0 0.00 0.00 0.00 48 1037.7
20260507074503 53 230 0.0 1.0 0.00 0.00 0.00 47 1037.6
20260507073004 54 227 0.0 2.0 0.00 0.00 0.00 46 1037.5
20260507071504 54 240 0.0 3.0 0.00 0.00 0.00 45 1037.5
20260507070007 54 213 0.0 3.0 0.00 0.00 0.00 45 1037.5
20260507064505 55 218 0.0 4.0 0.00 0.00 0.00 45 1037.5
20260507063003 55 230 0.0 3.0 0.00 0.00 0.00 44 1037.4
20260507061503 56 212 1.0 7.0 0.00 0.00 0.00 43 1037.2
20260507060004 56 224 0.0 3.0 0.00 0.00 0.00 43 1037.2
20260507054525 56 212 1.0 3.0 0.00 0.00 0.00 43 1037.1
20260507053004 57 224 1.0 4.0 0.00 0.00 0.00 41 1037.1
20260507051503 57 224 1.0 3.0 0.00 0.00 0.00 41 1036.9
20260507050003 57 224 0.0 3.0 0.00 0.00 0.00 41 1036.8
20260507044503 58 223 0.0 2.0 0.00 0.00 0.00 41 1036.6
20260507043003 58 224 1.0 3.0 0.00 0.00 0.00 40 1036.6
20260507041527 58 229 1.0 3.0 0.00 0.00 0.00 40 1036.4
20260507040007 59 228 1.0 6.0 0.00 0.00 0.00 38 1036.2
20260507034506 60 234 1.0 4.0 0.00 0.00 0.00 38 1036.0
20260507033006 61 242 1.0 5.0 0.00 0.00 0.00 37 1035.8
20260507031505 61 241 2.0 8.0 0.00 0.00 0.00 36 1035.6
20260507030027 62 226 2.0 6.0 0.00 0.00 0.00 36 1035.5
20260507024505 63 234 2.0 5.0 0.00 0.00 0.00 35 1035.2
20260507023006 63 234 1.0 6.0 0.00 0.00 0.00 34 1035.0
20260507021505 64 267 2.0 6.0 0.00 0.00 0.00 33 1034.6
20260507020006 66 272 2.0 6.0 0.00 0.00 0.00 32 1034.4
20260507014506 67 282 2.0 8.0 0.00 0.00 0.00 30 1034.3
20260507013006 69 287 3.0 7.0 0.00 0.00 0.00 28 1034.1
20260507011505 72 280 2.0 6.0 0.00 0.00 0.00 26 1034.1
20260507010005 74 297 2.0 7.0 0.00 0.00 0.00 25 1034.0
20260507004505 74 325 2.0 6.0 0.00 0.00 0.00 24 1034.0
20260507003005 74 325 2.0 6.0 0.00 0.00 0.00 24 1033.9
20260507001505 75 264 1.0 7.0 0.00 0.00 0.00 23 1033.9
20260507000005 74 305 2.0 5.0 0.00 0.00 0.00 24 1033.8
20260506234505 74 343 2.0 6.0 0.00 0.00 0.00 25 1033.7
20260506233006 73 47 3.0 10.0 0.00 0.00 0.00 23 1033.8
20260506231505 75 218 1.0 4.0 0.00 0.00 0.00 23 1034.0
20260506230005 72 214 1.0 4.0 0.00 0.00 0.00 24 1033.9
20260506224505 72 267 1.0 4.0 0.00 0.00 0.00 25 1034.1
20260506223005 72 15 2.0 7.0 0.00 0.00 0.00 26 1034.2
20260506221526 75 315 2.0 8.0 0.00 0.00 0.00 23 1034.4
20260506220006 73 16 4.0 13.0 0.00 0.00 0.00 24 1034.5
20260506214505 74 294 2.0 6.0 0.00 0.00 0.00 23 1034.8
20260506213005 73 4 3.0 10.0 0.00 0.00 0.00 23 1034.9
20260506211505 73 326 2.0 7.0 0.00 0.00 0.00 23 1035.1
20260506210005 72 250 1.0 4.0 0.00 0.00 0.00 24 1035.3
20260506204505 71 349 2.0 7.0 0.00 0.00 0.00 25 1035.4
20260506203005 70 92 3.0 7.0 0.00 0.00 0.00 27 1035.5
20260506201504 68 107 2.0 6.0 0.00 0.00 0.00 27 1035.6
20260506200005 69 39 4.0 9.0 0.00 0.00 0.00 27 1035.7
20260506194506 69 44 2.0 8.0 0.00 0.00 0.00 27 1035.8
20260506193005 69 355 3.0 9.0 0.00 0.00 0.00 25 1036.0
20260506191505 68 7 4.0 9.0 0.00 0.00 0.00 27 1036.0
20260506190005 67 53 3.0 8.0 0.00 0.00 0.00 28 1036.1
20260506184504 68 353 3.0 8.0 0.00 0.00 0.00 26 1036.3
20260506183005 68 297 2.0 5.0 0.00 0.00 0.00 26 1036.4